�������l�o���
Date,Time,MP-1(��Sv/h),MP-2(��Sv/h),MP-3(��Sv/h),MP-4(��Sv/h),MP-5(��Sv/h),MP-6(��Sv/h),MP-7(��Sv/h),MP-8(��Sv/h),����,����(m/s),���J
2020/11/18,00:00,0.678,0.978,0.615,1.213,0.868,0.386,0.679,0.638,��,7.1,��
2020/11/18,00:10,0.679,0.981,0.617,1.211,0.867,0.385,0.679,0.639,��,5.6,��
2020/11/18,00:20,0.676,0.983,0.617,1.213,0.870,0.385,0.679,0.637,��,7.5,��
2020/11/18,00:30,0.678,0.980,0.618,1.214,0.870,0.385,0.679,0.637,��,6.6,��
2020/11/18,00:40,0.678,0.981,0.618,1.211,0.868,0.385,0.679,0.638,��,5.6,��
2020/11/18,00:50,0.681,0.979,0.617,1.213,0.870,0.386,0.680,0.636,��,7.5,��
2020/11/18,01:00,0.679,0.981,0.617,1.211,0.867,0.386,0.681,0.637,��,8.1,��
2020/11/18,01:10,0.678,0.979,0.617,1.213,0.868,0.386,0.679,0.637,��,6.1,��
2020/11/18,01:20,0.677,0.980,0.615,1.212,0.868,0.387,0.679,0.637,��,5.5,��
2020/11/18,01:30,0.679,0.978,0.618,1.214,0.868,0.386,0.679,0.637,��,5.8,��
2020/11/18,01:40,0.677,0.979,0.618,1.214,0.867,0.386,0.680,0.638,��쐼,5.8,��
2020/11/18,01:50,0.677,0.979,0.616,1.211,0.867,0.387,0.679,0.637,��쐼,5.5,��
2020/11/18,02:00,0.677,0.978,0.616,1.213,0.868,0.386,0.680,0.638,��쐼,6.8,��
2020/11/18,02:10,0.677,0.978,0.615,1.212,0.867,0.386,0.679,0.638,��,6.8,��
2020/11/18,02:20,0.679,0.977,0.616,1.212,0.869,0.387,0.680,0.637,��,7.8,��
2020/11/18,02:30,0.680,0.979,0.617,1.215,0.871,0.385,0.679,0.638,��,8.6,��
2020/11/18,02:40,0.678,0.980,0.618,1.211,0.868,0.386,0.680,0.636,��쐼,7.8,��
2020/11/18,02:50,0.679,0.979,0.619,1.215,0.868,0.386,0.679,0.638,��,8.4,��
2020/11/18,03:00,0.678,0.979,0.618,1.211,0.867,0.387,0.680,0.640,��쐼,9.0,��
2020/11/18,03:10,0.680,0.980,0.618,1.214,0.868,0.385,0.681,0.637,��,9.1,��
2020/11/18,03:20,0.678,0.979,0.619,1.214,0.867,0.386,0.679,0.637,��,8.3,��
2020/11/18,03:30,0.677,0.980,0.617,1.211,0.869,0.386,0.680,0.638,��,7.3,��
2020/11/18,03:40,0.678,0.981,0.618,1.213,0.869,0.385,0.680,0.637,��,7.6,��
2020/11/18,03:50,0.679,0.979,0.617,1.213,0.869,0.385,0.679,0.639,��,6.8,��
2020/11/18,04:00,0.677,0.980,0.618,1.213,0.866,0.385,0.681,0.638,��,5.2,��
2020/11/18,04:10,0.679,0.977,0.617,1.213,0.867,0.386,0.679,0.639,��,5.2,��
2020/11/18,04:20,0.679,0.979,0.619,1.213,0.867,0.387,0.679,0.640,��쐼,5.6,��
2020/11/18,04:30,0.678,0.977,0.617,1.213,0.867,0.385,0.680,0.639,��,7.3,��
2020/11/18,04:40,0.677,0.979,0.617,1.213,0.867,0.385,0.679,0.638,��쐼,7.9,��
2020/11/18,04:50,0.680,0.977,0.617,1.214,0.867,0.385,0.679,0.638,��쐼,7.3,��
2020/11/18,05:00,0.679,0.980,0.617,1.215,0.868,0.386,0.680,0.637,��쐼,7.5,��
2020/11/18,05:10,0.679,0.978,0.618,1.216,0.870,0.387,0.679,0.638,��쐼,6.5,��
2020/11/18,05:20,0.679,0.979,0.618,1.215,0.868,0.386,0.680,0.639,��쐼,5.6,��
2020/11/18,05:30,0.679,0.978,0.617,1.213,0.867,0.387,0.681,0.636,��쐼,6.7,��
2020/11/18,05:40,0.677,0.978,0.617,1.215,0.869,0.387,0.680,0.639,��쐼,7.7,��
2020/11/18,05:50,0.678,0.979,0.616,1.213,0.868,0.386,0.679,0.639,��쐼,7.1,��
2020/11/18,06:00,0.678,0.980,0.618,1.213,0.868,0.387,0.680,0.638,��쐼,8.3,��
2020/11/18,06:10,0.678,0.976,0.618,1.214,0.867,0.386,0.681,0.638,��쐼,7.8,��
2020/11/18,06:20,0.677,0.977,0.617,1.214,0.868,0.386,0.681,0.639,��쐼,6.6,��
2020/11/18,06:30,0.677,0.977,0.617,1.212,0.868,0.389,0.681,0.638,��쐼,5.9,��
2020/11/18,06:40,0.679,0.979,0.618,1.213,0.867,0.386,0.680,0.638,��쐼,7.0,��
2020/11/18,06:50,0.677,0.979,0.618,1.214,0.867,0.386,0.680,0.637,��쐼,7.3,��
2020/11/18,07:00,0.678,0.979,0.618,1.213,0.867,0.386,0.682,0.639,��쐼,6.3,��
2020/11/18,07:10,0.677,0.977,0.618,1.214,0.868,0.386,0.681,0.638,��쐼,6.8,��
2020/11/18,07:20,0.680,0.979,0.619,1.215,0.868,0.386,0.680,0.638,��쐼,7.7,��
2020/11/18,07:30,0.679,0.978,0.618,1.214,0.869,0.386,0.678,0.639,��쐼,7.7,��
2020/11/18,07:40,0.680,0.979,0.618,1.215,0.866,0.386,0.680,0.638,��쐼,7.7,��
2020/11/18,07:50,0.679,0.977,0.617,1.215,0.866,0.388,0.681,0.638,��쐼,6.8,��
2020/11/18,08:00,0.680,0.978,0.619,1.215,0.867,0.386,0.681,0.639,��쐼,6.7,��
2020/11/18,08:10,0.680,0.979,0.618,1.213,0.870,0.387,0.683,0.639,��쐼,6.4,��
2020/11/18,08:20,0.681,0.981,0.619,1.214,0.869,0.386,0.682,0.639,��쐼,6.5,��
2020/11/18,08:30,0.679,0.977,0.620,1.216,0.869,0.386,0.682,0.639,��쐼,5.6,��
2020/11/18,08:40,0.679,0.975,0.619,1.214,0.869,0.387,0.683,0.640,��쐼,5.3,��
2020/11/18,08:50,0.682,0.976,0.618,1.212,0.869,0.388,0.683,0.639,��,3.1,��
2020/11/18,09:00,0.681,0.978,0.618,1.213,0.870,0.388,0.681,0.641,��쐼,3.7,��
2020/11/18,09:10,0.681,0.975,0.621,1.211,0.868,0.388,0.680,0.639,��쐼,3.1,��
2020/11/18,09:20,0.681,0.975,0.618,1.213,0.869,0.387,0.680,0.638,��쐼,4.0,��
2020/11/18,09:30,0.680,0.974,0.619,1.213,0.869,0.389,0.681,0.638,��,3.5,��
2020/11/18,09:40,0.679,0.973,0.621,1.214,0.870,0.387,0.682,0.640,��,4.6,��
2020/11/18,09:50,0.679,0.971,0.619,1.214,0.871,0.388,0.681,0.641,��,2.3,��
2020/11/18,10:00,0.678,0.971,0.617,1.218,0.868,0.387,0.681,0.639,��,3.0,��
2020/11/18,10:10,0.680,0.973,0.617,1.214,0.868,0.386,0.679,0.638,��쓌,3.3,��
2020/11/18,10:20,0.679,0.975,0.619,1.214,0.866,0.386,0.681,0.640,��,4.4,��
2020/11/18,10:30,0.682,0.974,0.618,1.216,0.868,0.386,0.681,0.637,��,5.0,��
2020/11/18,10:40,0.681,0.974,0.617,1.214,0.868,0.387,-,0.640,��,6.1,��
2020/11/18,10:50,0.682,0.974,0.619,1.213,0.869,0.385,-,0.640,��,4.3,��
2020/11/18,11:00,0.680,0.977,0.616,1.215,0.868,0.386,-,0.640,��쓌,6.3,��
2020/11/18,11:10,0.681,0.976,0.617,1.214,0.870,0.387,-,0.639,��쓌,6.3,��
2020/11/18,11:20,0.680,0.977,0.617,1.215,0.871,0.385,-,0.640,��쓌,5.9,��
2020/11/18,11:30,0.681,0.974,0.620,1.215,0.869,0.387,-,0.640,��쓌,5.2,��
2020/11/18,11:40,0.682,0.979,0.619,1.215,0.868,0.387,-,0.638,��쓌,6.1,��
2020/11/18,11:50,0.681,0.982,0.617,1.216,0.869,0.387,-,0.637,��쓌,7.6,��
2020/11/18,12:00,0.680,0.979,0.620,1.215,0.870,0.386,-,0.639,��쓌,7.8,��
2020/11/18,12:10,0.682,0.981,0.618,1.214,0.869,0.387,-,0.637,��쓌,8.4,��
2020/11/18,12:20,0.681,0.982,0.618,1.216,0.870,0.388,-,0.637,��,7.0,��
2020/11/18,12:30,0.680,0.980,0.619,1.215,0.871,0.387,-,0.637,��,6.4,��
2020/11/18,12:40,0.681,0.984,0.618,1.215,0.870,0.387,-,0.636,��쓌,8.0,��
2020/11/18,12:50,0.682,0.980,0.619,1.217,0.869,0.386,-,0.637,��쓌,7.3,��
2020/11/18,13:00,0.681,0.978,0.617,1.215,0.869,0.386,-,0.638,��쓌,7.5,��
2020/11/18,13:10,0.683,0.982,0.619,1.216,0.871,0.387,-,0.638,��,6.4,��
2020/11/18,13:20,0.682,0.978,0.618,1.215,0.872,0.386,-,0.636,��,6.2,��
2020/11/18,13:30,0.680,0.981,0.619,1.215,0.870,0.387,-,0.637,��쓌,7.3,��
2020/11/18,13:40,0.679,0.978,0.619,1.217,0.870,0.386,-,0.637,��,7.2,��
2020/11/18,13:50,0.682,0.979,0.618,1.217,0.871,0.386,0.677,0.638,��쓌,9.1,��
2020/11/18,14:00,0.679,0.977,0.619,1.214,0.869,0.387,0.679,0.639,��,9.4,��
2020/11/18,14:10,0.681,0.980,0.617,1.216,0.869,0.387,0.680,0.636,��,10.5,��
2020/11/18,14:20,0.679,0.979,0.618,1.216,0.871,0.388,0.680,0.636,��,10.8,��
2020/11/18,14:30,0.681,0.981,0.618,1.217,0.870,0.386,0.678,0.637,��,8.4,��
2020/11/18,14:40,0.681,0.982,0.619,1.215,0.869,0.386,0.680,0.637,��,8.4,��
2020/11/18,14:50,0.681,0.981,0.617,1.217,0.869,0.385,0.679,0.637,��,7.0,��
2020/11/18,15:00,0.681,0.980,0.617,1.216,0.871,0.385,0.680,0.637,��,7.4,��
2020/11/18,15:10,0.681,0.982,0.617,1.215,0.869,0.385,0.680,0.636,��,7.6,��
2020/11/18,15:20,0.681,0.983,0.619,1.216,0.870,0.388,0.680,0.637,��,6.5,��
2020/11/18,15:30,0.679,0.982,0.618,1.215,0.870,0.387,0.679,0.638,��,6.3,��
2020/11/18,15:40,0.679,0.986,0.618,1.218,0.870,0.387,0.680,0.637,��쐼,5.8,��
2020/11/18,15:50,0.680,0.983,0.619,1.217,0.869,0.387,0.681,0.638,��쐼,5.1,��
2020/11/18,16:00,0.680,0.980,0.619,1.216,0.868,0.386,0.681,0.638,��쐼,6.1,��
2020/11/18,16:10,0.680,0.984,0.619,1.214,0.868,0.389,0.682,0.639,��,7.2,��
2020/11/18,16:20,0.678,0.984,0.618,1.214,0.868,0.388,0.682,0.640,��,7.4,��
2020/11/18,16:30,0.680,0.987,0.618,1.215,0.868,0.388,0.681,0.640,��,6.8,��
2020/11/18,16:40,0.681,0.986,0.620,1.216,0.870,0.389,0.682,0.639,��쐼,6.8,��
2020/11/18,16:50,0.681,0.987,0.620,1.217,0.871,0.388,0.681,0.640,��쐼,6.6,��
2020/11/18,17:00,0.680,0.985,0.622,1.214,0.871,0.388,0.681,0.639,��,6.9,��
2020/11/18,17:10,0.680,0.987,0.621,1.217,0.873,0.388,0.681,0.639,��쐼,5.1,��
2020/11/18,17:20,0.681,0.985,0.621,1.215,0.871,0.388,0.682,0.639,��쐼,4.5,��
2020/11/18,17:30,0.682,0.986,0.620,1.214,0.872,0.388,0.681,0.639,�쐼,5.4,��
2020/11/18,17:40,0.684,0.984,0.620,1.216,0.870,0.389,0.682,0.640,�쐼,5.5,��
2020/11/18,17:50,0.682,0.983,0.620,1.215,0.873,0.388,0.681,0.639,�쐼,4.1,��
2020/11/18,18:00,0.682,0.985,0.620,1.217,0.871,0.389,0.679,0.638,�쐼,4.2,��
2020/11/18,18:10,0.682,0.985,0.622,1.217,0.872,0.387,0.682,0.641,�쐼,4.9,��
2020/11/18,18:20,0.683,0.984,0.621,1.215,0.873,0.388,0.683,0.639,�쐼,6.5,��
2020/11/18,18:30,0.684,0.982,0.622,1.216,0.873,0.388,0.681,0.637,���쐼,4.6,��
2020/11/18,18:40,0.682,0.984,0.620,1.216,0.873,0.389,0.682,0.639,�쐼,2.6,��
2020/11/18,18:50,0.682,0.984,0.620,1.216,0.871,0.388,0.681,0.641,�쐼,3.1,��
2020/11/18,19:00,0.681,0.983,0.620,1.215,0.874,0.390,0.683,0.638,��쐼,3.4,��
2020/11/18,19:10,0.682,0.984,0.619,1.216,0.871,0.388,0.682,0.639,�쐼,3.8,��
2020/11/18,19:20,0.682,0.984,0.619,1.216,0.870,0.388,0.681,0.639,�쐼,2.9,��
2020/11/18,19:30,0.682,0.981,0.621,1.214,0.872,0.388,0.682,0.641,�쐼,3.4,��
2020/11/18,19:40,0.680,0.983,0.622,1.217,0.871,0.387,0.681,0.640,��,3.5,��
2020/11/18,19:50,0.681,0.982,0.621,1.215,0.873,0.389,0.682,0.640,��쐼,4.5,��
2020/11/18,20:00,0.682,0.984,0.620,1.217,0.872,0.388,0.682,0.639,��쐼,4.6,��
2020/11/18,20:10,0.681,0.982,0.621,1.214,0.872,0.386,0.681,0.640,�쐼,4.5,��
2020/11/18,20:20,0.681,0.984,0.619,1.214,0.872,0.386,0.681,0.638,�쐼,5.2,��
2020/11/18,20:30,0.681,0.983,0.619,1.213,0.872,0.389,0.680,0.640,�쐼,5.1,��
2020/11/18,20:40,0.681,0.980,0.620,1.214,0.871,0.388,0.679,0.639,�쐼,4.8,��
2020/11/18,20:50,0.683,0.984,0.620,1.216,0.871,0.389,0.681,0.640,�쐼,4.9,��
2020/11/18,21:00,0.683,0.982,0.620,1.214,0.871,0.388,0.681,0.638,�쐼,4.8,��
2020/11/18,21:10,0.681,0.981,0.621,1.215,0.870,0.388,0.682,0.639,��쐼,4.8,��
2020/11/18,21:20,0.682,0.981,0.619,1.216,0.872,0.389,0.681,0.638,��쐼,3.5,��
2020/11/18,21:30,0.681,0.982,0.619,1.216,0.870,0.388,0.679,0.638,��쐼,3.9,��
2020/11/18,21:40,0.682,0.980,0.619,1.216,0.869,0.387,0.681,0.640,��쐼,3.5,��
2020/11/18,21:50,0.683,0.981,0.619,1.214,0.872,0.388,0.681,0.640,��,3.9,��
2020/11/18,22:00,0.683,0.982,0.620,1.213,0.870,0.388,0.681,0.638,��쐼,3.2,��
2020/11/18,22:10,0.682,0.983,0.619,1.216,0.869,0.389,0.681,0.639,��쐼,3.4,��
2020/11/18,22:20,0.681,0.983,0.621,1.212,0.870,0.389,0.680,0.639,��쐼,4.9,��
2020/11/18,22:30,0.681,0.982,0.622,1.214,0.869,0.389,0.680,0.638,��쐼,5.0,��
2020/11/18,22:40,0.681,0.980,0.621,1.214,0.870,0.386,0.681,0.639,��쐼,6.6,��
2020/11/18,22:50,0.681,0.982,0.619,1.213,0.873,0.388,0.681,0.639,��쐼,6.9,��
2020/11/18,23:00,0.682,0.984,0.619,1.215,0.870,0.389,0.680,0.639,��쐼,7.1,��
2020/11/18,23:10,0.681,0.982,0.620,1.214,0.871,0.389,0.682,0.639,��쐼,6.2,��
2020/11/18,23:20,0.681,0.978,0.620,1.217,0.871,0.386,0.680,0.639,��쐼,5.5,��
2020/11/18,23:30,0.681,0.982,0.621,1.216,0.872,0.387,0.682,0.639,��,5.1,��
2020/11/18,23:40,0.681,0.981,0.621,1.214,0.870,0.387,0.681,0.638,��쐼,5.8,��
2020/11/18,23:50,0.681,0.980,0.621,1.215,0.869,0.387,0.680,0.639,��쐼,5.8,��
